Showing default

COSMOS 2553, 51511

Orbit data source: Space-Track

COSMOS 2553, 51511 is a payload satellite owned by VVKO VKS (CIS) in LEO that was launched on Sat, 05 Feb 2022 UTC via a SOYUZ-2-1A launch vehicle from the Plesetsk Missile And Space Complex (PKMTR). Payload-class satellites include a variety of spacecraft equipped with specific instruments for various scientific and technological missions. These include communications satellites like Starlink; space stations such as the ISS; scientific satellites like the Hubble; Earth observation satellites from companies like Planet Labs, Umbra, and HawkEye 360; GPS; miniature CubeSats for education and research; and military/defense satellites.

Loading next visibility...
Identifier
51511, 2022-011A
Orbit
LEO
Country
Flag of CISCIS
Related business
Manufacturer
Resehetnev ISS
Mission
Non-operational Defense Radar Imaging
Bus & Motor
MERIDIAN?, Unknown motor
Mass
~2,000 kg wet, ~2,000 kg dry
Launch date (UTC)
2022-02-05 (4 years ago)
Launch vehicle
SOYUZ-2-1A
Launch site
Plesetsk Missile And Space Complex (PKMTR)
Object type
Payload
Rocket body
Debris
Shape & HBR
Box + 2 Pan, 5.0 m
Radar Cross Section
14.304 m², Large (>1 m²)

Expand to show TLE details & history
Last TLE update: 2 months ago

TLE from 2 months ago
0 COSMOS 2553
1 51511U 22011A   25213.46114525 -.00000037  00000-0 -59531-4 0  9999
2 51511  67.0917 125.5724 0003887 266.5691  93.4808 11.32845047144222
Epoch: 2025-08-01T11:04Z
TLE epoch observation values (Epoch: 2025-08-01T11:04:02.949Z)
Latitude
0.00005°
Longitude
9.2488°
Altitude
1,998.314 km
Speed
6.9 km/s
True Right ascension
08h 22m 17s
True Declination
0° 00' 00"
Sunlit
Object was in daylight at epoch
Visualization orbit readout
Latitude
Unknown
Longitude
Unknown
Altitude
Unknown
Speed
Unknown
Apparent Right ascension
Unknown
Apparent Declination
Unknown
Sunlit
N/A
Visualization observer readout
Local Sidereal Time
05:03:30
Azimuth
Unknown
Elevation
Unknown
Doppler factor
Unknown
Orbital elements
Apogee altitude
1,998.111 km
Perigee altitude
1,991.601 km
Semi-major axis
8,372.993 km
Eccentricity
0.00039
Inclination
67.0917°
RAAN
125.5724°
Arg. of periapsis
266.5691°
True anomaly
93.52526°
Mean anomaly
93.4808°
Eccentric anomaly
93.50303°
Mean motion
2.83284 °/min
Orbital period
127.08 mins
BSTAR
-0.000059531
Loading maneuver chart data...
Computing Atmospheric mass density...
Loading historical data...
Loading historical data...
Loading historical data...
Loading historical data...
Loading historical data...
Loading historical data...
Loading historical data...
Other satellites on launch #11 in the year 2022 (2022-02-05 UTC)

Documentation

Showing up to 5 results
|